Regional Weather Roundup
Issued by NWS Cleveland, OH

Home | Current Version | Previous Version | Text Only | Print | Product List | Glossary On
Versions: 1 2 3 4 5 6 7 8 9 10 11 12 13 14 15 16 17 18 19 20 21 22 23 24 25 26 27 28 29 30 31 32 33 34 35 36 37 38 39 40 41 42 43 44 45 46 47 48 49 50
341
ASUS41 KCLE 170112
RWRCLE
OHIO REGIONAL WEATHER ROUNDUP
NATIONAL WEATHER SERVICE WILMINGTON, OH
800 PM EST MON JAN 16 2017

NOTE: "FAIR" INDICATES FEW OR NO CLOUDS BELOW 12,000 FEET WITH NO
SIGNIFICANT WEATHER AND/OR OBSTRUCTIONS TO VISIBILITY.

OHZ001>008-015>018-024>027-034-035-043-044-170200-
   NORTHWEST OHIO

CITY           SKY/WX    TMP DP  RH WIND       PRES   REMARKS
DEFIANCE       CLOUDY    36  34  92 E7        30.14F FOG
FINDLAY        CLOUDY    40  35  83 SE10      30.13F HAZE
TOLEDO EXPRESS FOG       34  34 100 E5        30.16S VSB 1/2 WCI  30
TOLEDO EXEC    FOG       34  34 100 E6        30.16F VSB 3/4 WCI  29
LIMA           CLOUDY    40  39  97 SE8       30.13S FOG
$$

OHZ009>014-019>023-028>033-038-089-170200-
   NORTHEAST OHIO

CITY           SKY/WX    TMP DP  RH WIND       PRES   REMARKS
CLE-HOPKINS    CLOUDY    39  33  79 SE10      30.21F
CLE-LAKEFRONT  CLOUDY    38  32  79 SE7       30.19S
CUY CO. ARPT   CLOUDY    39  32  75 SE12      30.20F
LORAIN-ELYRIA  CLOUDY    37  33  85 SE9       30.18F
ASHTABULA      CLOUDY    35  26  69 E7        30.21F WCI  29
AKRON-CANTON   CLOUDY    37  33  85 SE6       30.21S FOG
WOOSTER        CLOUDY    36  33  89 SE9       30.19F
MANSFIELD      CLOUDY    38  37  97 SE9       30.16F FOG
YOUNGSTOWN     CLOUDY    37  29  72 SE8       30.20F
$$

OHZ042-051>053-060>062-070>072-077>081-170200-
  SOUTHWEST OHIO

CITY           SKY/WX    TMP DP  RH WIND       PRES   REMARKS
CINC-COVINGTON LGT RAIN  50  49  96 E5        30.12F FOG
CINC-LUNKEN    LGT RAIN  48  48 100 CALM      30.16S FOG
HAMILTON       RAIN      49  49 100 CALM      30.16S FOG
DAYTON         LGT RAIN  47  46  97 SE8       30.14F FOG
WRIGHT-PAT AFB LGT RAIN  47  47 100 SE5       30.15S
DAYTON GENERAL RAIN      49  47  93 E7        30.13F FOG
WILMINGTON     LGT RAIN  47  46  97 E3        30.16S FOG
$$

OHZ036-037-039>041-045>050-054>059-063>069-073>076-082>088-170200-
  CENTRAL AND SOUTHEAST OHIO

CITY           SKY/WX    TMP DP  RH WIND       PRES   REMARKS
COLUMBUS       CLOUDY    45  45 100 E6        30.17F
OSU AIRPORT    CLOUDY    44  44 100 SE6       30.16F
BOLTON FIELD   CLOUDY    44  44  98 E3        30.17F
RICKENBACK AFB   N/A     43  42  99 E6        30.16F
NEWARK         FAIR      41  38  89 CALM      30.18F FOG
MARION         MOCLDY    40  38  93 SE10      30.16F FOG
LANCASTER      MOCLDY    45  43  93 CALM      30.18F
ZANESVILLE     MOCLDY    42  39  89 E5        30.19F FOG
NEW PHILLY     CLOUDY    40  36  86 CALM      30.21F
$$




USA.gov is the U.S. government's official web portal to all federal, state and local government web resources and services.